User: anonymous   Login
Location: Unspecified
(0.0000°N, 0.0000°E)
Time: 19:32:05
(UTC+00:00)
Language:

WGS F4 (USA 233) - Orbit

View from above orbital plane
View from above orbital plane
View from above satellite
View from above satellite

Ground track
Ground track

The orbit data is extracted from the following two-line orbital elements,

1 38070U 12003A   21136.85466135 -.00000207  00000-0  00000-0 0  9995
2 38070   0.0185 298.4047 0000186 350.0003 342.4611  1.00270594 25527
Epoch (UTC): 16 May 2021 20:30:42
Eccentricity: 0.0000186
inclination: 0.0185°
perigee height: 35786 km
apogee height: 35787 km
right ascension of ascending node: 298.4047°
argument of perigee: 350.0003°
revolutions per day: 1.00270594
mean anomaly at epoch: 342.4611°
orbit number at epoch: 2552

The dashed part of the orbit path shows where the satellite is in the earth's shadow,  

DLR